Myrtle Beach, SC

4:09 PM EST on February 24, 2017 (GMT -0500)
Myrtle Beach International

Weather History for KMYR - February, 2013

Change the Weather History Date:

Sunday, February 10, 2013

  Actual Average Record
Temperature  
Mean Temperature 44 °F -  
Max Temperature 57 °F 55 °F 76 °F (1950)
Min Temperature 30 °F 37 °F 20 °F (1989)
Degree Days  
Heating Degree Days 22    
Moisture  
Dew Point 38 °F    
Average Humidity 85    
Maximum Humidity 100    
Minimum Humidity 54    
Precipitation  
Precipitation 0.00 in - - ()
Sea Level Pressure  
Sea Level Pressure 30.35 in    
Wind  
Wind Speed 4 mph (ENE)    
Max Wind Speed 17 mph    
Max Gust Speed 23 mph    
Visibility 10 miles    
Events      
Averages and records for this station are not official NWS values.
T = Trace of Precipitation, MM = Missing Value Source: NWS Daily Summary

Daily Weather History Graph

Daily Weather History Graph

Search for Another Location

Airport or City:

Trip Planner

Search our weather history database for the weather conditions in past years. The results will help you decide how hot, cold, wet, or windy it might be!

Date:

Astronomy

Feb. 10, 2013 Rise Set
Actual Time 7:04 AM EST 5:55 PM EST
Civil Twilight 6:38 AM EST 6:21 PM EST
Nautical Twilight 6:09 AM EST 6:50 PM EST
Astronomical Twilight 5:40 AM EST 7:19 PM EST
Moon 6:56 AM EST (2/10) 6:39 PM EST (2/10)
Length of Visible Light 11h 42m
Length of Day
10h 51m
New Moon, 0% of the Moon is Illuminated
Feb 10
New Moon
Feb 17
First Quarter
Feb 25
Full
Mar 4
Last Quarter
Mar 11
New

Hourly Weather History & Observations

Time (EST) Temp. Windchill Dew Point Humidity Pressure Visibility Wind Dir Wind Speed Gust Speed Precip Events Conditions
12:15 AM 35.6 °F - 33.8 °F 93% 30.37 in 10.0 mi Calm Calm - N/A   Clear
12:35 AM 35.6 °F - 33.8 °F 93% 30.36 in 9.0 mi Calm Calm - N/A   Clear
12:55 AM 35.6 °F - 33.8 °F 93% 30.36 in 10.0 mi Calm Calm - N/A   Clear
1:15 AM 33.8 °F - 33.8 °F 100% 30.36 in 3.0 mi Calm Calm - N/A   Clear
1:35 AM 33.8 °F - 30.2 °F 87% 30.36 in 7.0 mi Calm Calm - N/A   Clear
1:55 AM 32.0 °F 28.7 °F 28.4 °F 87% 30.36 in 10.0 mi North 3.5 mph - N/A   Clear
2:15 AM 32.0 °F 28.7 °F 30.2 °F 93% 30.36 in 9.0 mi North 3.5 mph - N/A   Clear
2:35 AM 32.0 °F - 30.2 °F 93% 30.37 in 10.0 mi Calm Calm - N/A   Clear
2:55 AM 33.8 °F 28.6 °F 30.2 °F 87% 30.36 in 10.0 mi North 5.8 mph - N/A   Clear
3:15 AM 33.8 °F 28.6 °F 32.0 °F 93% 30.36 in 10.0 mi NNE 5.8 mph - N/A   Clear
3:35 AM 33.8 °F 29.6 °F 32.0 °F 93% 30.36 in 10.0 mi North 4.6 mph - N/A   Clear
3:55 AM 35.6 °F 30.7 °F 33.8 °F 93% 30.35 in 10.0 mi NNE 5.8 mph - N/A   Clear
4:15 AM 33.8 °F 30.8 °F 28.4 °F 81% 30.36 in 10.0 mi NNW 3.5 mph - N/A   Clear
4:35 AM 30.2 °F 25.4 °F 28.4 °F 93% 30.37 in 10.0 mi North 4.6 mph - N/A   Clear
4:55 AM 32.0 °F - 30.2 °F 93% 30.37 in 10.0 mi Calm Calm - N/A   Clear
5:15 AM 30.2 °F - 28.4 °F 93% 30.38 in 10.0 mi Calm Calm - N/A   Clear
5:35 AM 30.2 °F - 28.4 °F 93% 30.38 in 10.0 mi Calm Calm - N/A   Clear
5:50 AM 30.2 °F - 30.2 °F 100% 30.38 in 10.0 mi Calm Calm - N/A   Clear
6:45 AM 32.0 °F - 30.2 °F 93% 30.39 in 10.0 mi Calm Calm - N/A   Clear
7:45 AM 37.4 °F 32.1 °F 33.8 °F 87% 30.41 in 10.0 mi NNE 6.9 mph - N/A   Scattered Clouds
8:45 AM 42.8 °F 39.3 °F 37.4 °F 81% 30.43 in 10.0 mi NE 5.8 mph - N/A   Scattered Clouds
9:45 AM 46.4 °F 41.9 °F 39.2 °F 76% 30.45 in 10.0 mi NE 9.2 mph - N/A   Partly Cloudy
10:50 AM 53.6 °F - 39.2 °F 58% 30.45 in 10.0 mi ENE 11.5 mph - N/A   Clear
12:45 PM 55.4 °F - 39.2 °F 54% 30.41 in 10.0 mi East 17.3 mph 23.0 mph N/A   Clear
1:45 PM 55.4 °F - 42.8 °F 63% 30.37 in 10.0 mi East 13.8 mph 23.0 mph N/A   Clear
2:45 PM 55.4 °F - 42.8 °F 63% 30.36 in 10.0 mi East 16.1 mph - N/A   Clear
3:45 PM 53.6 °F - 44.6 °F 72% 30.34 in 10.0 mi East 17.3 mph - N/A   Clear
4:45 PM 53.6 °F - 44.6 °F 72% 30.33 in 10.0 mi East 17.3 mph - N/A   Scattered Clouds
5:55 PM 51.8 °F - 46.4 °F 82% 30.31 in 10.0 mi East 13.8 mph - N/A   Mostly Cloudy
6:50 PM 51.8 °F - 48.2 °F 88% 30.29 in 10.0 mi ENE 11.5 mph - N/A   Mostly Cloudy
7:50 PM 53.6 °F - 50.0 °F 88% 30.29 in 10.0 mi East 10.4 mph - N/A   Scattered Clouds
8:50 PM 53.6 °F - 50.0 °F 88% 30.26 in 10.0 mi East 11.5 mph - N/A   Mostly Cloudy
9:47 PM 57.2 °F - 51.8 °F 82% 30.25 in 10.0 mi SSE 13.8 mph - N/A   Scattered Clouds
11:15 PM 57.2 °F - 51.8 °F 82% 30.27 in 10.0 mi SSE 5.8 mph - N/A   Overcast
11:35 PM 57.2 °F - 51.8 °F 82% 30.27 in 10.0 mi SSE 6.9 mph - N/A   Mostly Cloudy
11:55 PM 57.2 °F - 53.6 °F 88% 30.27 in 10.0 mi SE 5.8 mph - N/A   Clear